Time,TemperatureF,DewpointF,PressureIn,WindDirection,WindDirectionDegrees,WindSpeedMPH,WindSpeedGustMPH,Humidity,HourlyPrecipIn,Conditions,Clouds,dailyrainin,SoftwareType,DateUTC
2013-02-10 00:01:00,41.0,34.0,29.98,West,263,0.0,-999.0,75,-99.99,,,-99.99,,2013-02-10 08:01:00,
2013-02-10 00:11:00,41.0,34.0,29.98,West,263,0.0,-999.0,75,-99.99,,,-99.99,,2013-02-10 08:11:00,
2013-02-10 00:21:00,41.0,33.0,29.98,West,263,0.0,-999.0,74,-99.99,,,-99.99,,2013-02-10 08:21:00,
2013-02-10 00:31:00,41.0,33.0,29.98,West,263,0.0,-999.0,74,-99.99,,,-99.99,,2013-02-10 08:31:00,
2013-02-10 00:43:00,41.0,33.0,29.98,West,263,0.0,-999.0,74,-99.99,,,-99.99,,2013-02-10 08:43:00,
2013-02-10 00:52:00,40.0,32.0,29.98,West,263,0.0,-999.0,74,-99.99,,,-99.99,,2013-02-10 08:52:00,
2013-02-10 01:01:00,40.0,33.0,29.98,West,263,0.0,-999.0,75,-99.99,,,-99.99,,2013-02-10 09:01:00,
2013-02-10 01:11:00,40.0,33.0,29.98,West,263,0.0,-999.0,75,-99.99,,,-99.99,,2013-02-10 09:11:00,
2013-02-10 01:21:00,39.0,32.0,29.98,West,263,0.0,-999.0,75,-99.99,,,-99.99,,2013-02-10 09:21:00,
2013-02-10 01:31:00,39.0,32.0,29.98,West,263,0.0,-999.0,76,-99.99,,,-99.99,,2013-02-10 09:31:00,
2013-02-10 01:41:00,39.0,32.0,29.98,West,263,0.0,-999.0,76,-99.99,,,-99.99,,2013-02-10 09:41:00,
2013-02-10 01:51:00,39.0,32.0,29.98,West,263,0.0,-999.0,76,-99.99,,,-99.99,,2013-02-10 09:51:00,
2013-02-10 02:01:00,38.0,31.0,29.97,West,263,0.0,-999.0,77,-99.99,,,-99.99,,2013-02-10 10:01:00,
2013-02-10 02:11:00,38.0,32.0,29.96,West,263,0.0,-999.0,78,-99.99,,,-99.99,,2013-02-10 10:11:00,
2013-02-10 02:21:00,38.0,32.0,29.96,West,263,0.0,-999.0,78,-99.99,,,-99.99,,2013-02-10 10:21:00,
2013-02-10 02:31:00,38.0,31.0,29.96,West,263,0.0,-999.0,77,-99.99,,,-99.99,,2013-02-10 10:31:00,
2013-02-10 02:41:00,38.0,31.0,29.96,West,263,0.0,-999.0,77,-99.99,,,-99.99,,2013-02-10 10:41:00,
2013-02-10 02:51:00,38.0,32.0,29.96,West,263,0.0,-999.0,78,-99.99,,,-99.99,,2013-02-10 10:51:00,
2013-02-10 03:01:00,37.0,31.0,29.96,West,263,0.0,-999.0,78,-99.99,,,-99.99,,2013-02-10 11:01:00,
2013-02-10 03:11:00,37.0,31.0,29.96,West,263,0.0,-999.0,78,-99.99,,,-99.99,,2013-02-10 11:11:00,
2013-02-10 03:21:00,37.0,31.0,29.96,West,263,0.0,-999.0,78,-99.99,,,-99.99,,2013-02-10 11:21:00,
2013-02-10 03:31:00,37.0,31.0,29.96,West,263,0.0,-999.0,79,-99.99,,,-99.99,,2013-02-10 11:31:00,
2013-02-10 03:42:00,37.0,31.0,29.96,West,263,0.0,-999.0,79,-99.99,,,-99.99,,2013-02-10 11:42:00,
2013-02-10 03:52:00,37.0,31.0,29.96,West,263,0.0,-999.0,79,-99.99,,,-99.99,,2013-02-10 11:52:00,
2013-02-10 04:01:00,37.0,31.0,29.96,West,263,0.0,-999.0,79,-99.99,,,-99.99,,2013-02-10 12:01:00,
2013-02-10 04:12:00,37.0,31.0,29.96,West,263,0.0,-999.0,79,-99.99,,,-99.99,,2013-02-10 12:12:00,
2013-02-10 04:21:00,37.0,31.0,29.96,West,263,0.0,-999.0,80,-99.99,,,-99.99,,2013-02-10 12:21:00,
2013-02-10 04:32:00,37.0,31.0,29.96,West,263,0.0,-999.0,80,-99.99,,,-99.99,,2013-02-10 12:32:00,
2013-02-10 04:41:00,37.0,31.0,29.96,West,263,0.0,-999.0,80,-99.99,,,-99.99,,2013-02-10 12:41:00,
2013-02-10 04:52:00,36.0,30.0,29.95,West,263,0.0,-999.0,80,-99.99,,,-99.99,,2013-02-10 12:52:00,
2013-02-10 05:02:00,36.0,31.0,29.96,West,263,0.0,-999.0,81,-99.99,,,-99.99,,2013-02-10 13:02:00,
2013-02-10 05:11:00,36.0,31.0,29.96,West,263,0.0,-999.0,81,-99.99,,,-99.99,,2013-02-10 13:11:00,
2013-02-10 05:21:00,36.0,31.0,29.96,West,263,0.0,-999.0,82,-99.99,,,-99.99,,2013-02-10 13:21:00,
2013-02-10 05:31:00,35.0,30.0,29.96,West,263,0.0,-999.0,82,-99.99,,,-99.99,,2013-02-10 13:31:00,
2013-02-10 05:41:00,35.0,30.0,29.96,West,263,0.0,-999.0,82,-99.99,,,-99.99,,2013-02-10 13:41:00,
2013-02-10 05:51:00,35.0,30.0,29.96,West,263,0.0,-999.0,83,-99.99,,,-99.99,,2013-02-10 13:51:00,
2013-02-10 06:01:00,35.0,31.0,29.95,West,263,0.0,-999.0,84,-99.99,,,-99.99,,2013-02-10 14:01:00,
2013-02-10 06:11:00,35.0,31.0,29.95,West,263,0.0,-999.0,84,-99.99,,,-99.99,,2013-02-10 14:11:00,
2013-02-10 06:21:00,35.0,30.0,29.95,West,263,0.0,-999.0,83,-99.99,,,-99.99,,2013-02-10 14:21:00,
2013-02-10 06:31:00,35.0,30.0,29.95,West,263,0.0,-999.0,83,-99.99,,,-99.99,,2013-02-10 14:31:00,
2013-02-10 06:41:00,35.0,30.0,29.95,West,263,0.0,-999.0,83,-99.99,,,-99.99,,2013-02-10 14:41:00,
2013-02-10 06:52:00,35.0,31.0,29.95,West,263,0.0,-999.0,84,-99.99,,,-99.99,,2013-02-10 14:52:00,
2013-02-10 07:01:00,34.0,30.0,29.96,West,263,0.0,-999.0,85,-99.99,,,-99.99,,2013-02-10 15:01:00,
2013-02-10 07:11:00,34.0,30.0,29.96,West,263,0.0,-999.0,85,-99.99,,,-99.99,,2013-02-10 15:11:00,
2013-02-10 07:21:00,34.0,30.0,29.96,West,263,0.0,-999.0,86,-99.99,,,-99.99,,2013-02-10 15:21:00,
2013-02-10 07:31:00,35.0,32.0,29.96,West,263,0.0,-999.0,87,-99.99,,,-99.99,,2013-02-10 15:31:00,
2013-02-10 07:41:00,35.0,32.0,29.96,West,263,0.0,-999.0,87,-99.99,,,-99.99,,2013-02-10 15:41:00,
2013-02-10 07:51:00,35.0,31.0,29.96,West,263,0.0,-999.0,86,-99.99,,,-99.99,,2013-02-10 15:51:00,
2013-02-10 08:01:00,35.0,31.0,29.96,West,263,0.0,-999.0,86,-99.99,,,-99.99,,2013-02-10 16:01:00,
2013-02-10 08:11:00,35.0,32.0,29.97,West,263,0.0,-999.0,87,-99.99,,,-99.99,,2013-02-10 16:11:00,
2013-02-10 08:21:00,35.0,32.0,29.97,West,263,0.0,-999.0,87,-99.99,,,-99.99,,2013-02-10 16:21:00,
2013-02-10 08:32:00,36.0,32.0,29.97,West,263,0.0,-999.0,86,-99.99,,,-99.99,,2013-02-10 16:32:00,
2013-02-10 08:42:00,38.0,34.0,29.98,West,263,0.0,-999.0,84,-99.99,,,-99.99,,2013-02-10 16:42:00,
2013-02-10 08:51:00,38.0,34.0,29.98,West,263,0.0,-999.0,84,-99.99,,,-99.99,,2013-02-10 16:51:00,
2013-02-10 09:01:00,40.0,34.0,29.98,West,263,0.0,-999.0,80,-99.99,,,-99.99,,2013-02-10 17:01:00,
2013-02-10 09:11:00,40.0,34.0,29.98,West,263,0.0,-999.0,80,-99.99,,,-99.99,,2013-02-10 17:11:00,
2013-02-10 09:21:00,43.0,36.0,29.98,West,263,0.0,-999.0,75,-99.99,,,-99.99,,2013-02-10 17:21:00,
2013-02-10 09:31:00,45.0,35.0,29.98,West,274,0.0,-999.0,69,-99.99,,,-99.99,,2013-02-10 17:31:00,
2013-02-10 09:42:00,47.0,36.0,29.98,NW,314,0.0,-999.0,66,-99.99,,,-99.99,,2013-02-10 17:42:00,
2013-02-10 09:52:00,47.0,36.0,29.98,NW,314,0.0,-999.0,66,-99.99,,,-99.99,,2013-02-10 17:52:00,
2013-02-10 10:01:00,49.0,37.0,29.97,North,5,0.0,-999.0,62,-99.99,,,-99.99,,2013-02-10 18:01:00,
2013-02-10 10:11:00,51.0,37.0,29.96,NE,46,0.0,-999.0,59,-99.99,,,-99.99,,2013-02-10 18:11:00,
2013-02-10 10:21:00,51.0,37.0,29.96,NE,46,0.0,-999.0,59,-99.99,,,-99.99,,2013-02-10 18:21:00,
2013-02-10 10:31:00,51.0,36.0,29.96,East,80,0.0,-999.0,57,-99.99,,,-99.99,,2013-02-10 18:31:00,
2013-02-10 10:41:00,51.0,36.0,29.96,East,80,0.0,-999.0,57,-99.99,,,-99.99,,2013-02-10 18:41:00,
2013-02-10 10:51:00,53.0,37.0,29.96,NE,36,0.0,-999.0,55,-99.99,,,-99.99,,2013-02-10 18:51:00,
2013-02-10 11:01:00,54.0,38.0,29.96,NE,37,0.0,-999.0,55,-99.99,,,-99.99,,2013-02-10 19:01:00,
2013-02-10 11:11:00,55.0,39.0,29.96,ENE,59,0.0,-999.0,54,-99.99,,,-99.99,,2013-02-10 19:11:00,
2013-02-10 11:21:00,55.0,39.0,29.96,ENE,59,0.0,-999.0,54,-99.99,,,-99.99,,2013-02-10 19:21:00,
2013-02-10 11:31:00,56.0,40.0,29.96,ESE,116,0.0,-999.0,55,-99.99,,,-99.99,,2013-02-10 19:31:00,
2013-02-10 11:42:00,57.0,40.0,29.95,ENE,65,0.0,-999.0,53,-99.99,,,-99.99,,2013-02-10 19:42:00,
2013-02-10 11:51:00,57.0,40.0,29.95,ENE,65,0.0,-999.0,53,-99.99,,,-99.99,,2013-02-10 19:51:00,
2013-02-10 12:01:00,57.0,39.0,29.94,NNE,17,0.0,-999.0,50,-99.99,,,-99.99,,2013-02-10 20:01:00,
2013-02-10 12:11:00,57.0,39.0,29.94,NNE,17,0.0,-999.0,50,-99.99,,,-99.99,,2013-02-10 20:11:00,
2013-02-10 12:21:00,58.0,39.0,29.93,ENE,59,0.0,-999.0,49,-99.99,,,-99.99,,2013-02-10 20:21:00,
2013-02-10 12:31:00,58.0,39.0,29.92,NE,38,0.0,-999.0,50,-99.99,,,-99.99,,2013-02-10 20:31:00,
2013-02-10 12:42:00,59.0,39.0,29.91,NE,46,0.0,-999.0,47,-99.99,,,-99.99,,2013-02-10 20:42:00,
2013-02-10 12:52:00,59.0,39.0,29.91,NE,46,0.0,-999.0,47,-99.99,,,-99.99,,2013-02-10 20:52:00,
2013-02-10 13:02:00,59.0,38.0,29.91,ENE,78,1.0,-999.0,45,-99.99,,,-99.99,,2013-02-10 21:02:00,
2013-02-10 13:11:00,59.0,38.0,29.91,ENE,78,1.0,-999.0,45,-99.99,,,-99.99,,2013-02-10 21:11:00,
2013-02-10 13:21:00,56.0,38.0,29.90,East,101,1.0,-999.0,50,-99.99,,,-99.99,,2013-02-10 21:21:00,
2013-02-10 13:32:00,56.0,39.0,29.89,ESE,109,1.0,-999.0,52,-99.99,,,-99.99,,2013-02-10 21:32:00,
2013-02-10 13:42:00,56.0,39.0,29.89,East,83,0.0,-999.0,52,-99.99,,,-99.99,,2013-02-10 21:42:00,
2013-02-10 13:51:00,56.0,39.0,29.89,East,83,0.0,-999.0,52,-99.99,,,-99.99,,2013-02-10 21:51:00,
2013-02-10 14:01:00,56.0,39.0,29.89,ENE,67,0.0,-999.0,52,-99.99,,,-99.99,,2013-02-10 22:01:00,
2013-02-10 14:11:00,57.0,38.0,29.88,ENE,67,1.0,-999.0,48,-99.99,,,-99.99,,2013-02-10 22:11:00,
2013-02-10 14:21:00,57.0,38.0,29.88,ENE,67,1.0,-999.0,48,-99.99,,,-99.99,,2013-02-10 22:21:00,
2013-02-10 14:31:00,56.0,38.0,29.88,East,87,1.0,-999.0,51,-99.99,,,-99.99,,2013-02-10 22:31:00,
2013-02-10 14:42:00,55.0,38.0,29.88,ESE,113,1.0,-999.0,52,-99.99,,,-99.99,,2013-02-10 22:42:00,
2013-02-10 14:52:00,55.0,38.0,29.88,ESE,113,1.0,-999.0,52,-99.99,,,-99.99,,2013-02-10 22:52:00,
2013-02-10 15:01:00,55.0,39.0,29.88,ESE,115,0.0,-999.0,54,-99.99,,,-99.99,,2013-02-10 23:01:00,
2013-02-10 15:11:00,55.0,39.0,29.88,ESE,115,0.0,-999.0,54,-99.99,,,-99.99,,2013-02-10 23:11:00,
2013-02-10 15:21:00,56.0,40.0,29.88,ESE,115,1.0,-999.0,54,-99.99,,,-99.99,,2013-02-10 23:21:00,
2013-02-10 15:31:00,55.0,39.0,29.88,SE,126,2.0,-999.0,55,-99.99,,,-99.99,,2013-02-10 23:31:00,
2013-02-10 15:41:00,55.0,39.0,29.88,East,92,2.0,-999.0,55,-99.99,,,-99.99,,2013-02-10 23:41:00,
2013-02-10 15:52:00,55.0,39.0,29.88,East,92,2.0,-999.0,55,-99.99,,,-99.99,,2013-02-10 23:52:00,
2013-02-10 16:01:00,55.0,40.0,29.88,SE,132,2.0,-999.0,57,-99.99,,,-99.99,,2013-02-11 00:01:00,
2013-02-10 16:11:00,55.0,41.0,29.88,NNE,30,2.0,-999.0,59,-99.99,,,-99.99,,2013-02-11 00:11:00,
2013-02-10 16:21:00,55.0,41.0,29.88,NNE,30,2.0,-999.0,59,-99.99,,,-99.99,,2013-02-11 00:21:00,
2013-02-10 16:31:00,55.0,41.0,29.88,NNE,30,2.0,-999.0,59,-99.99,,,-99.99,,2013-02-11 00:31:00,
2013-02-10 16:41:00,54.0,40.0,29.88,ENE,77,1.0,-999.0,59,-99.99,,,-99.99,,2013-02-11 00:41:00,
2013-02-10 16:51:00,54.0,40.0,29.88,ENE,77,1.0,-999.0,59,-99.99,,,-99.99,,2013-02-11 00:51:00,
2013-02-10 17:01:00,54.0,40.0,29.88,ESE,111,1.0,-999.0,60,-99.99,,,-99.99,,2013-02-11 01:01:00,
2013-02-10 17:11:00,54.0,40.0,29.88,ESE,111,1.0,-999.0,60,-99.99,,,-99.99,,2013-02-11 01:11:00,
2013-02-10 17:21:00,53.0,40.0,29.89,ESE,106,0.0,-999.0,61,-99.99,,,-99.99,,2013-02-11 01:21:00,
2013-02-10 17:32:00,52.0,40.0,29.89,ESE,120,0.0,-999.0,63,-99.99,,,-99.99,,2013-02-11 01:32:00,
2013-02-10 17:41:00,51.0,40.0,29.89,ESE,104,0.0,-999.0,66,-99.99,,,-99.99,,2013-02-11 01:41:00,
2013-02-10 17:52:00,51.0,40.0,29.89,ESE,104,0.0,-999.0,66,-99.99,,,-99.99,,2013-02-11 01:52:00,
2013-02-10 18:01:00,51.0,41.0,29.90,ESE,111,0.0,-999.0,68,-99.99,,,-99.99,,2013-02-11 02:01:00,
2013-02-10 18:11:00,51.0,41.0,29.90,ESE,111,0.0,-999.0,68,-99.99,,,-99.99,,2013-02-11 02:11:00,
2013-02-10 18:21:00,50.0,40.0,29.90,ESE,111,0.0,-999.0,69,-99.99,,,-99.99,,2013-02-11 02:21:00,
2013-02-10 18:31:00,50.0,40.0,29.90,ESE,111,0.0,-999.0,69,-99.99,,,-99.99,,2013-02-11 02:31:00,
2013-02-10 18:41:00,49.0,40.0,29.90,ESE,111,0.0,-999.0,70,-99.99,,,-99.99,,2013-02-11 02:41:00,
2013-02-10 18:52:00,49.0,40.0,29.90,ESE,111,0.0,-999.0,70,-99.99,,,-99.99,,2013-02-11 02:52:00,
2013-02-10 19:01:00,49.0,40.0,29.90,ESE,111,0.0,-999.0,72,-99.99,,,-99.99,,2013-02-11 03:01:00,
2013-02-10 19:11:00,49.0,40.0,29.90,ESE,111,0.0,-999.0,72,-99.99,,,-99.99,,2013-02-11 03:11:00,
2013-02-10 19:21:00,48.0,39.0,29.91,ESE,111,0.0,-999.0,72,-99.99,,,-99.99,,2013-02-11 03:21:00,
2013-02-10 19:31:00,48.0,40.0,29.91,ESE,111,0.0,-999.0,74,-99.99,,,-99.99,,2013-02-11 03:31:00,
2013-02-10 19:41:00,47.0,39.0,29.91,ESE,111,0.0,-999.0,73,-99.99,,,-99.99,,2013-02-11 03:41:00,
2013-02-10 19:51:00,47.0,39.0,29.91,ESE,111,0.0,-999.0,73,-99.99,,,-99.99,,2013-02-11 03:51:00,
2013-02-10 20:01:00,47.0,39.0,29.91,ESE,111,0.0,-999.0,74,-99.99,,,-99.99,,2013-02-11 04:01:00,
2013-02-10 20:11:00,47.0,39.0,29.91,ESE,111,0.0,-999.0,74,-99.99,,,-99.99,,2013-02-11 04:11:00,
2013-02-10 20:21:00,47.0,39.0,29.91,ESE,111,0.0,-999.0,75,-99.99,,,-99.99,,2013-02-11 04:21:00,
2013-02-10 20:31:00,46.0,39.0,29.92,ESE,111,0.0,-999.0,76,-99.99,,,-99.99,,2013-02-11 04:31:00,
2013-02-10 20:42:00,46.0,39.0,29.92,ESE,111,0.0,-999.0,77,-99.99,,,-99.99,,2013-02-11 04:42:00,
2013-02-10 20:51:00,46.0,39.0,29.92,ESE,111,0.0,-999.0,77,-99.99,,,-99.99,,2013-02-11 04:51:00,
2013-02-10 21:01:00,45.0,39.0,29.92,ESE,111,0.0,-999.0,78,-99.99,,,-99.99,,2013-02-11 05:01:00,
2013-02-10 21:11:00,45.0,39.0,29.91,ESE,111,0.0,-999.0,79,-99.99,,,-99.99,,2013-02-11 05:11:00,
2013-02-10 21:22:00,45.0,39.0,29.91,ESE,111,0.0,-999.0,79,-99.99,,,-99.99,,2013-02-11 05:22:00,
2013-02-10 21:31:00,45.0,39.0,29.92,ESE,111,0.0,-999.0,79,-99.99,,,-99.99,,2013-02-11 05:31:00,
2013-02-10 21:41:00,45.0,39.0,29.92,ESE,111,0.0,-999.0,79,-99.99,,,-99.99,,2013-02-11 05:41:00,
2013-02-10 21:52:00,44.0,38.0,29.93,ESE,111,0.0,-999.0,80,-99.99,,,-99.99,,2013-02-11 05:52:00,
2013-02-10 22:01:00,44.0,39.0,29.93,ESE,111,0.0,-999.0,81,-99.99,,,-99.99,,2013-02-11 06:01:00,
2013-02-10 22:11:00,44.0,39.0,29.93,ESE,111,0.0,-999.0,81,-99.99,,,-99.99,,2013-02-11 06:11:00,
2013-02-10 22:21:00,44.0,39.0,29.93,ESE,111,0.0,-999.0,81,-99.99,,,-99.99,,2013-02-11 06:21:00,
2013-02-10 22:31:00,43.0,38.0,29.93,ESE,111,0.0,-999.0,81,-99.99,,,-99.99,,2013-02-11 06:31:00,
2013-02-10 22:42:00,43.0,38.0,29.93,ESE,111,0.0,-999.0,81,-99.99,,,-99.99,,2013-02-11 06:42:00,
2013-02-10 22:51:00,43.0,38.0,29.93,ESE,111,0.0,-999.0,81,-99.99,,,-99.99,,2013-02-11 06:51:00,
2013-02-10 23:01:00,43.0,38.0,29.93,ESE,111,0.0,-999.0,81,-99.99,,,-99.99,,2013-02-11 07:01:00,
2013-02-10 23:11:00,43.0,38.0,29.94,ESE,119,0.0,-999.0,81,-99.99,,,-99.99,,2013-02-11 07:11:00,
2013-02-10 23:21:00,43.0,38.0,29.94,ESE,119,0.0,-999.0,81,-99.99,,,-99.99,,2013-02-11 07:21:00,
2013-02-10 23:31:00,42.0,37.0,29.94,SSW,212,0.0,-999.0,81,-99.99,,,-99.99,,2013-02-11 07:31:00,
2013-02-10 23:41:00,42.0,37.0,29.94,SSW,212,0.0,-999.0,82,-99.99,,,-99.99,,2013-02-11 07:41:00,
2013-02-10 23:51:00,42.0,37.0,29.94,SSW,212,0.0,-999.0,82,-99.99,,,-99.99,,2013-02-11 07:51:00,